Weather History for Ephrata, WA

Change the Weather History Date:

Wednesday, March 6, 2013

  Actual Average Record
Temperature  
Mean Temperature 38 °F 40 °F  
Max Temperature 41 °F 50 °F 63 °F (2005)
Min Temperature 35 °F 30 °F 19 °F (1951)
Degree Days  
Heating Degree Days 27 25  
Month to date heating degree days 142 157  
Since 1 July heating degree days 4375 4730  
Cooling Degree Days 0 0  
Month to date cooling degree days 0 0  
Year to date cooling degree days 0 0  
Moisture  
Dew Point 34 °F    
Average Humidity 90    
Maximum Humidity 100    
Minimum Humidity 79    
Precipitation  
Precipitation 0.43 in 0.03 in 0.43 in (2013)
Month to date precipitation 0.44 0.16  
Year to date precipitation 0.79 1.81  
Sea Level Pressure  
Sea Level Pressure 29.69 in    
Wind  
Wind Speed 10 mph (NW)    
Max Wind Speed 16 mph    
Max Gust Speed 20 mph    
Visibility 9 miles    
Events Rain , Snow    
T = Trace of Precipitation, MM = Missing Value Source: NWS Daily Summary

Daily Weather History Graph

Daily Weather History Graph

Search for Another Location

Airport:

Trip Planner

Search our weather history database for the weather conditions in past years. The results will help you decide how hot, cold, wet, or windy it might be!

Date:

Astronomy

Mar. 06, 2013 Rise Set
Actual Time 6:28 AM PST 5:51 PM PST
Civil Twilight 5:57 AM PST 6:21 PM PST
Nautical Twilight 5:22 AM PST 6:57 PM PST
Astronomical Twilight 4:46 AM PST 7:33 PM PST
Moon 2:58 AM PST (3/6) 12:21 PM PST (3/6)
Length of Visible Light 12h 24m
Length of Day
11h 23m
Waning Crescent, 29% of the Moon is Illuminated
Mar 6
Waning Crescent
Mar 11
New
Mar 19
First Quarter
Mar 27
Full
Apr 2
Last Quarter

Hourly Weather History & Observations

Time (PST) Temp. Windchill Dew Point Humidity Pressure Visibility Wind Dir Wind Speed Gust Speed Precip Events Conditions
12:34 AM 35.6 °F 27.1 °F 33.8 °F 93% 29.78 in 10.0 mi NNW 12.7 mph - 0.00 in Rain Light Rain
12:53 AM 36.0 °F 27.5 °F 33.1 °F 89% 29.80 in 10.0 mi North 12.7 mph - 0.00 in Rain Light Rain
1:53 AM 37.0 °F 28.9 °F 33.1 °F 86% 29.77 in 10.0 mi North 12.7 mph - 0.00 in   Overcast
2:53 AM 37.0 °F 29.3 °F 33.1 °F 86% 29.73 in 10.0 mi North 11.5 mph - N/A   Overcast
3:53 AM 37.0 °F 29.8 °F 32.0 °F 82% 29.72 in 10.0 mi North 10.4 mph - N/A   Overcast
4:53 AM 37.0 °F 30.4 °F 33.1 °F 86% 29.70 in 10.0 mi North 9.2 mph - 0.00 in Rain Light Rain
5:04 AM 37.4 °F 30.3 °F 33.8 °F 87% 29.67 in 10.0 mi North 10.4 mph - 0.00 in Rain Light Rain
5:53 AM 37.0 °F 28.9 °F 33.1 °F 86% 29.68 in 8.0 mi North 12.7 mph - 0.03 in Rain Light Rain
6:53 AM 35.1 °F 26.4 °F 33.1 °F 92% 29.67 in 10.0 mi North 12.7 mph - 0.02 in Rain Light Rain
7:46 AM 37.4 °F 30.3 °F 33.8 °F 87% 29.63 in 10.0 mi North 10.4 mph - 0.00 in Rain Light Rain
7:53 AM 37.0 °F 29.3 °F 34.0 °F 89% 29.65 in 10.0 mi North 11.5 mph - 0.00 in Rain Light Rain
8:53 AM 39.0 °F 31.8 °F 34.0 °F 82% 29.64 in 10.0 mi North 11.5 mph - 0.00 in Rain Light Rain
9:42 AM 39.2 °F 32.0 °F 33.8 °F 81% 29.60 in 10.0 mi North 11.5 mph - 0.00 in Rain Light Rain
9:53 AM 39.0 °F 31.0 °F 34.0 °F 82% 29.62 in 9.0 mi North 13.8 mph - 0.01 in Rain Light Rain
10:53 AM 37.9 °F 30.0 °F 34.0 °F 86% 29.64 in 10.0 mi NNW 12.7 mph - 0.01 in   Overcast
11:35 AM 39.2 °F 31.6 °F 35.6 °F 87% 29.60 in 10.0 mi North 12.7 mph - 0.00 in   Overcast
11:53 AM 39.9 °F 32.5 °F 36.0 °F 86% 29.62 in 10.0 mi North 12.7 mph - 0.00 in   Overcast
12:36 PM 39.2 °F 31.2 °F 35.6 °F 87% 29.60 in 10.0 mi NNW 13.8 mph - N/A   Overcast
12:53 PM 39.9 °F 31.8 °F 35.1 °F 83% 29.62 in 10.0 mi NNW 15.0 mph - 0.00 in Rain Light Rain
1:53 PM 37.9 °F 29.6 °F 35.1 °F 89% 29.63 in 8.0 mi NW 13.8 mph - 0.03 in Rain Light Rain
2:53 PM 39.9 °F 32.9 °F 36.0 °F 86% 29.62 in 10.0 mi NW 11.5 mph - 0.01 in   Overcast
3:53 PM 37.9 °F 30.5 °F 34.0 °F 86% 29.65 in 10.0 mi WNW 11.5 mph - 0.00 in Rain Light Rain
4:53 PM 37.9 °F - 35.1 °F 89% 29.67 in 6.0 mi Calm Calm - 0.02 in Rain Light Rain
5:53 PM 37.9 °F 35.5 °F 34.0 °F 86% 29.69 in 7.0 mi SW 3.5 mph - 0.04 in Rain Light Rain
6:00 PM 37.4 °F 34.9 °F 35.6 °F 93% 29.66 in 7.0 mi West 3.5 mph - 0.02 in Rain Light Rain
6:53 PM 35.1 °F 32.2 °F 34.0 °F 96% 29.72 in 6.0 mi SSW 3.5 mph - 0.09 in Snow Light Snow
7:10 PM 35.6 °F 30.7 °F 33.8 °F 93% 29.69 in 5.0 mi SSW 5.8 mph - 0.02 in Rain Light Rain
7:38 PM 35.6 °F 29.2 °F 33.8 °F 93% 29.70 in 8.0 mi WSW 8.1 mph - 0.03 in Rain Light Rain
7:53 PM 35.1 °F 27.9 °F 33.1 °F 92% 29.74 in 10.0 mi SW 9.2 mph - 0.04 in Rain Light Rain
8:53 PM 35.1 °F 29.3 °F 33.1 °F 92% 29.77 in 10.0 mi SSW 6.9 mph - 0.04 in Rain Light Rain
9:53 PM 36.0 °F 29.6 °F 34.0 °F 93% 29.79 in 9.0 mi SW 8.1 mph - 0.04 in Rain Light Rain
10:53 PM 36.0 °F 30.3 °F 35.1 °F 97% 29.82 in 10.0 mi SSW 6.9 mph - 0.04 in Rain Light Rain
11:01 PM 35.6 °F 29.2 °F 35.6 °F 100% 29.79 in 10.0 mi SSW 8.1 mph - 0.00 in Rain Light Rain
11:53 PM 36.0 °F 32.1 °F 35.1 °F 97% 29.84 in 10.0 mi WSW 4.6 mph - 0.01 in Rain Light Rain